[keps] orb08304.amsat
Ray Hoad
r.hoad at att.net
Thu Oct 30 19:33:19 PDT 2008
SB KEPS @ AMSAT $ORB08304.O
Orbital Elements 08304.OSCAR
HR AMSAT ORBITAL ELEMENTS FOR OSCAR SATELLITES
FROM WA5QGD FORT WORTH,TX October 30, 2008
Send Subscribe/unsubscribe to KEPS at
http://www.amsat.org/mailman/listinfo/keps
BID: ORB08304.O
TO ALL RADIO AMATEURS BT
Satellite: AO-07
Catalog number: 07530
Epoch time: 08303.60786392
Element set: 313
Inclination: 101.4544 deg
RA of node: 330.5475 deg
Eccentricity: 0.0011898
Arg of perigee: 000.2344 deg
Mean anomaly: 359.8730 deg
Mean motion: 12.53574431 rev/day
Decay rate: -2.7e-07 rev/day^2
Epoch rev: 55382
Checksum: 284
Satellite: AO-10
Catalog number: 14129
Epoch time: 08303.67212325
Element set: 0581
Inclination: 026.0303 deg
RA of node: 188.4643 deg
Eccentricity: 0.5959656
Arg of perigee: 169.1540 deg
Mean anomaly: 213.8113 deg
Mean motion: 02.05869109 rev/day
Decay rate: -1.39e-06 rev/day^2
Epoch rev: 19087
Checksum: 301
Satellite: UO-11
Catalog number: 14781
Epoch time: 08303.48689190
Element set: 0800
Inclination: 098.1403 deg
RA of node: 339.4312 deg
Eccentricity: 0.0009315
Arg of perigee: 007.7529 deg
Mean anomaly: 352.3847 deg
Mean motion: 14.79673276 rev/day
Decay rate: 2.68e-06 rev/day^2
Epoch rev: 32371
Checksum: 314
Satellite: RS-15
Catalog number: 23439
Epoch time: 08303.91383312
Element set: 0162
Inclination: 064.8160 deg
RA of node: 277.1861 deg
Eccentricity: 0.0145706
Arg of perigee: 096.6638 deg
Mean anomaly: 265.0892 deg
Mean motion: 11.27552540 rev/day
Decay rate: -3.9e-07 rev/day^2
Epoch rev: 57015
Checksum: 304
Satellite: FO-29
Catalog number: 24278
Epoch time: 08303.78870711
Element set: 893
Inclination: 098.5772 deg
RA of node: 202.4009 deg
Eccentricity: 0.0350030
Arg of perigee: 227.0182 deg
Mean anomaly: 130.1124 deg
Mean motion: 13.52939525 rev/day
Decay rate: -2.8e-07 rev/day^2
Epoch rev: 60259
Checksum: 295
Satellite: SO-33
Catalog number: 25509
Epoch time: 08303.32558680
Element set: 312
Inclination: 031.4303 deg
RA of node: 277.8876 deg
Eccentricity: 0.0354482
Arg of perigee: 120.0718 deg
Mean anomaly: 243.5537 deg
Mean motion: 14.28229775 rev/day
Decay rate: 5.3e-07 rev/day^2
Epoch rev: 52280
Checksum: 300
Satellite: AO-40
Catalog number: 26609
Epoch time: 08302.52735662
Element set: 145
Inclination: 008.0153 deg
RA of node: 052.3373 deg
Eccentricity: 0.7938941
Arg of perigee: 138.6704 deg
Mean anomaly: 321.8922 deg
Mean motion: 01.25586462 rev/day
Decay rate: -2.88e-06 rev/day^2
Epoch rev: 3671
Checksum: 308
Satellite: VO-52
Catalog number: 28650
Epoch time: 08303.33973754
Element set: 68
Inclination: 097.7761 deg
RA of node: 006.1607 deg
Eccentricity: 0.0028249
Arg of perigee: 064.2611 deg
Mean anomaly: 296.1562 deg
Mean motion: 14.81513318 rev/day
Decay rate: 9.0e-07 rev/day^2
Epoch rev: 18846
Checksum: 312
Satellite: PO-63
Catalog number: 29712
Epoch time: 08304.21634562
Element set: 925
Inclination: 097.8608 deg
RA of node: 359.7684 deg
Eccentricity: 0.0013418
Arg of perigee: 306.2918 deg
Mean anomaly: 053.7053 deg
Mean motion: 14.80315837 rev/day
Decay rate: 5.37e-06 rev/day^2
Epoch rev: 9744
Checksum: 328
/EX
SB KEPS @ AMSAT $ORB08304.D
Orbital Elements 08304.MICROS
HR AMSAT ORBITAL ELEMENTS FOR THE MICROSATS
FROM WA5QGD FORT WORTH,TX October 30, 2008
Send Subscribe/unsubscribe to KEPS at
http://www.amsat.org/mailman/listinfo/keps
BID: ORB08304.D
TO ALL RADIO AMATEURS BT
Satellite: AO-16
Catalog number: 20439
Epoch time: 08303.52468610
Element set: 451
Inclination: 098.2482 deg
RA of node: 276.8372 deg
Eccentricity: 0.0011612
Arg of perigee: 133.4263 deg
Mean anomaly: 226.7890 deg
Mean motion: 14.31806684 rev/day
Decay rate: 2.4e-07 rev/day^2
Epoch rev: 98014
Checksum: 296
Satellite: LO-19
Catalog number: 20442
Epoch time: 08303.47988266
Element set: 0376
Inclination: 098.2155 deg
RA of node: 284.9068 deg
Eccentricity: 0.0012537
Arg of perigee: 131.0996 deg
Mean anomaly: 229.1285 deg
Mean motion: 14.32044208 rev/day
Decay rate: 2.5e-07 rev/day^2
Epoch rev: 98029
Checksum: 319
Satellite: AO-27
Catalog number: 22825
Epoch time: 08303.89445017
Element set: 0096
Inclination: 098.4035 deg
RA of node: 258.9836 deg
Eccentricity: 0.0007854
Arg of perigee: 218.3807 deg
Mean anomaly: 141.6821 deg
Mean motion: 14.29250265 rev/day
Decay rate: 7.0e-08 rev/day^2
Epoch rev: 78701
Checksum: 319
Satellite: IO-26
Catalog number: 22826
Epoch time: 08303.92502598
Element set: 0810
Inclination: 098.3976 deg
RA of node: 259.8637 deg
Eccentricity: 0.0008295
Arg of perigee: 216.3758 deg
Mean anomaly: 143.6888 deg
Mean motion: 14.29500302 rev/day
Decay rate: 1.9e-07 rev/day^2
Epoch rev: 78711
Checksum: 338
Satellite: GO-32
Catalog number: 25397
Epoch time: 08303.60770379
Element set: 734
Inclination: 098.3507 deg
RA of node: 332.0464 deg
Eccentricity: 0.0001194
Arg of perigee: 164.2653 deg
Mean anomaly: 195.8565 deg
Mean motion: 14.23150493 rev/day
Decay rate: 7.6e-07 rev/day^2
Epoch rev: 53533
Checksum: 308
Satellite: NO-44
Catalog number: 26931
Epoch time: 08303.54634864
Element set: 0014
Inclination: 067.0521 deg
RA of node: 298.5268 deg
Eccentricity: 0.0007035
Arg of perigee: 257.7514 deg
Mean anomaly: 102.2805 deg
Mean motion: 14.29537172 rev/day
Decay rate: -5.6e-07 rev/day^2
Epoch rev: 36961
Checksum: 302
Satellite: SO-50
Catalog number: 27607
Epoch time: 08303.44558811
Element set: 0735
Inclination: 064.5612 deg
RA of node: 005.8879 deg
Eccentricity: 0.0085288
Arg of perigee: 253.2542 deg
Mean anomaly: 105.9213 deg
Mean motion: 14.71389988 rev/day
Decay rate: -2.0e-07 rev/day^2
Epoch rev: 31472
Checksum: 317
Satellite: CO-55
Catalog number: 27844
Epoch time: 08303.75216255
Element set: 0430
Inclination: 098.7167 deg
RA of node: 310.1630 deg
Eccentricity: 0.0010773
Arg of perigee: 087.4647 deg
Mean anomaly: 272.7758 deg
Mean motion: 14.20603569 rev/day
Decay rate: 6.3e-07 rev/day^2
Epoch rev: 27654
Checksum: 313
Satellite: CO-57
Catalog number: 27848
Epoch time: 08303.55707943
Element set: 0382
Inclination: 098.7187 deg
RA of node: 309.0463 deg
Eccentricity: 0.0010592
Arg of perigee: 091.3827 deg
Mean anomaly: 268.8567 deg
Mean motion: 14.20410768 rev/day
Decay rate: 5.0e-07 rev/day^2
Epoch rev: 27648
Checksum: 338
Satellite: AO-51
Catalog number: 28375
Epoch time: 08303.51448304
Element set: 232
Inclination: 098.0633 deg
RA of node: 320.4861 deg
Eccentricity: 0.0084675
Arg of perigee: 104.6798 deg
Mean anomaly: 256.3804 deg
Mean motion: 14.40622295 rev/day
Decay rate: 1.1e-07 rev/day^2
Epoch rev: 22774
Checksum: 297
Satellite: CO-56
Catalog number: 28941
Epoch time: 08304.08983522
Element set: 506
Inclination: 098.1206 deg
RA of node: 074.0287 deg
Eccentricity: 0.0143425
Arg of perigee: 268.4280 deg
Mean anomaly: 090.0644 deg
Mean motion: 15.63537666 rev/day
Decay rate: 3.0933e-04 rev/day^2
Epoch rev: 15107
Checksum: 312
Satellite: CP3
Catalog number: 31128
Epoch time: 08303.71476206
Element set: 0469
Inclination: 098.0226 deg
RA of node: 001.3545 deg
Eccentricity: 0.0101706
Arg of perigee: 278.9941 deg
Mean anomaly: 079.9762 deg
Mean motion: 14.51985592 rev/day
Decay rate: -4.8e-07 rev/day^2
Epoch rev: 08145
Checksum: 314
Satellite: CP4
Catalog number: 31132
Epoch time: 08303.72917007
Element set: 447
Inclination: 098.0281 deg
RA of node: 004.1944 deg
Eccentricity: 0.0084540
Arg of perigee: 270.6935 deg
Mean anomaly: 088.4569 deg
Mean motion: 14.55151479 rev/day
Decay rate: -1.75e-06 rev/day^2
Epoch rev: 8151
Checksum: 299
Satellite: CO-65
Catalog number: 32785
Epoch time: 08303.39978999
Element set: 0209
Inclination: 097.9788 deg
RA of node: 002.8797 deg
Eccentricity: 0.0016107
Arg of perigee: 062.7167 deg
Mean anomaly: 297.5694 deg
Mean motion: 14.81407419 rev/day
Decay rate: 2.40e-06 rev/day^2
Epoch rev: 02727
Checksum: 364
/EX
SB KEPS @ AMSAT $ORB08304.W
Orbital Elements 08304.WEATHER
HR AMSAT ORBITAL ELEMENTS FOR WEATHER SATELLITES
FROM WA5QGD FORT WORTH,TX October 30, 2008
Send Subscribe/unsubscribe to KEPS at
http://www.amsat.org/mailman/listinfo/keps
BID: ORB08304.W
TO ALL RADIO AMATEURS BT
Satellite: NOAA-10
Catalog number: 16969
Epoch time: 08304.30522016
Element set: 347
Inclination: 098.7139 deg
RA of node: 325.9567 deg
Eccentricity: 0.0012665
Arg of perigee: 144.2817 deg
Mean anomaly: 215.9213 deg
Mean motion: 14.27371865 rev/day
Decay rate: 7.3e-07 rev/day^2
Epoch rev: 15071
Checksum: 303
Satellite: NOAA-11
Catalog number: 19531
Epoch time: 08304.30810578
Element set: 377
Inclination: 098.7957 deg
RA of node: 031.7257 deg
Eccentricity: 0.0012137
Arg of perigee: 046.0431 deg
Mean anomaly: 314.1794 deg
Mean motion: 14.14880929 rev/day
Decay rate: 1.57e-06 rev/day^2
Epoch rev: 3701
Checksum: 296
Satellite: NOAA-12
Catalog number: 21263
Epoch time: 08304.59530174
Element set: 889
Inclination: 098.7725 deg
RA of node: 306.5731 deg
Eccentricity: 0.0013327
Arg of perigee: 090.6496 deg
Mean anomaly: 269.6210 deg
Mean motion: 14.25551843 rev/day
Decay rate: 1.9e-07 rev/day^2
Epoch rev: 90768
Checksum: 319
Satellite: MET-3/5
Catalog number: 21655
Epoch time: 08303.96269353
Element set: 0576
Inclination: 082.5599 deg
RA of node: 009.1616 deg
Eccentricity: 0.0014426
Arg of perigee: 040.8750 deg
Mean anomaly: 319.3451 deg
Mean motion: 13.17016835 rev/day
Decay rate: 5.1e-07 rev/day^2
Epoch rev: 82732
Checksum: 304
Satellite: MET-2/21
Catalog number: 22782
Epoch time: 08303.71392954
Element set: 0289
Inclination: 082.5520 deg
RA of node: 004.8520 deg
Eccentricity: 0.0020893
Arg of perigee: 273.2281 deg
Mean anomaly: 086.6488 deg
Mean motion: 13.83631843 rev/day
Decay rate: -1.07e-06 rev/day^2
Epoch rev: 76573
Checksum: 314
Satellite: OKEAN-4
Catalog number: 23317
Epoch time: 08303.63063181
Element set: 0734
Inclination: 082.5414 deg
RA of node: 189.6237 deg
Eccentricity: 0.0023617
Arg of perigee: 046.7252 deg
Mean anomaly: 313.5918 deg
Mean motion: 14.82646223 rev/day
Decay rate: 1.92e-06 rev/day^2
Epoch rev: 75820
Checksum: 293
